Regional Weather Roundup
Issued by NWS

Home | Current Version | Previous Version | Text Only | Print | Product List | Glossary Off
Versions: 1 2 3 4 5 6 7 8 9 10 11 12 13 14 15 16 17 18 19 20 21 22 23 24 25 26 27 28 29 30 31 32 33 34 35 36 37 38 39 40 41 42 43 44 45 46 47 48 49 50

000
ASUS45 KBOI 080610
RWRID

IDAHO REGIONAL WEATHER ROUNDUP
NATIONAL WEATHER SERVICE BOISE ID
1100 PM MST SUN FEB 07 2016

NOTE: "FAIR" INDICATES FEW OR NO CLOUDS BELOW 12000 FEET
WITH NO SIGNIFICANT WEATHER AND/OR OBSTRUCTIONS TO VISIBILITY

IDZ012-014-080700-
SOUTHWEST IDAHO


CITY           SKY/WX    TMP DP  RH WIND       PRES   REMARKS
BOISE          CLEAR     34  30  85 CALM      30.66R
CALDWELL       CLEAR     31  29  92 CALM      30.68R
MOUNTAIN HOME  CLEAR     30  30 100 E7        30.66R WCI  23
$$

IDZ016-017-080700-
SOUTHCENTRAL IDAHO


CITY           SKY/WX    TMP DP  RH WIND       PRES   REMARKS
BURLEY         PTCLDY    25  23  92 CALM      30.64R
JEROME         MOCLDY    28  25  88 N9        30.64S WCI  19
TWIN FALLS     PTCLDY    33  30  88 S9        30.64R WCI  25
$$

IDZ019>023-080700-
SOUTHEAST IDAHO


CITY           SKY/WX    TMP DP  RH WIND       PRES   REMARKS
IDAHO FALLS    FOG       22  20  92 N3        30.67R VSB 1/2
POCATELLO      FOG       23  22  96 NE8       30.67S VSB 1/2 WCI  14
REXBURG        FOG       22  22 100 CALM      30.65R VSB 1/4
$$

IDZ006-010-011-018-031-032-080700-
CENTRAL IDAHO MOUNTAINS


CITY           SKY/WX    TMP DP  RH WIND       PRES   REMARKS
MCCALL         FOG       18  16  92 CALM      30.62S VSB 1/4
HAILEY         CLEAR     23  18  80 NW12      30.63S WCI  12
STANLEY          N/A     18  11  74 CALM      30.67R
SALMON         CLOUDY    16  12  86 CALM      30.69R
CHALLIS        CLEAR     11   8  88 SW5       30.66R WCI   3
$$

IDZ002-004-006-007-026-080700-
NORTHERN IDAHO


CITY           SKY/WX    TMP DP  RH WIND       PRES   REMARKS
LEWISTON       CLEAR     37  31  78 CALM      30.63F
LOWELL           N/A     37  34  89 NW3       30.71F
COEUR D`ALENE  MOCLDY    34  28  80 NE7       30.61R WCI  28
MULLAN PASS    CLOUDY    28  20  71 SW10      30.54F WCI  19
$$



USA.gov is the U.S. government's official web portal to all federal, state and local government web resources and services.